User: anonymous
Location: Brno
(49.2000°N, 16.6330°E)
Time: 20:51:43
(UTC+02:00)
Language:

Cosmos 1459 Rocket - Orbit

View from above orbital plane
View from above orbital plane
View from above satellite
View from above satellite

Ground track
Ground track

The orbit data is extracted from the following two-line orbital elements,

1 14059U 83042B   14245.10395509  .00000141  00000-0  12403-3 0  3807
2 14059 082.9691 098.2708 0041473 247.7600 224.9724 13.78458572575350
Epoch (UTC): 02 September 2014 02:29:41
Eccentricity: 0.0041473
inclination: 82.9691°
perigee height: 939 km
apogee height: 1000 km
right ascension of ascending node: 98.2708°
argument of perigee: 247.7600°
revolutions per day: 13.78458572
mean anomaly at epoch: 224.9724°
orbit number at epoch: 57535

The dashed part of the orbit path shows where the satellite is in the earth's shadow,  

DLR